Regional Weather Roundup
Issued by NWS

Home | Current Version | Previous Version | Graphics & Text | Print | Product List | Glossary On
Versions: 1 2 3 4 5 6 7 8 9 10 11 12 13 14 15 16 17 18 19 20 21 22 23 24 25 26 27 28 29 30 31 32 33 34 35 36 37 38 39 40 41 42 43 44 45 46 47 48 49 50
375
ASUS43 KFSD 290802
RWRSD

WEATHER ROUNDUP FOR SOUTH DAKOTA
NATIONAL WEATHER SERVICE SIOUX FALLS SD
300 AM CDT MON MAY 29 2017

NOTE: "FAIR" INDICATES FEW OR NO CLOUDS BELOW 12,000 FEET WITH NO
SIGNIFICANT WEATHER AND/OR OBSTRUCTIONS TO VISIBILITY.


SDZ001>005-009-010-012>017-290900-
NORTHWEST AND NORTH CENTRAL SOUTH DAKOTA

CITY           SKY/WX    TMP DP  RH WIND       PRES   REMARKS
BUFFALO          N/A     41  33  73 W6        30.06R
FAITH            N/A     44  36  73 W10       30.07S
MOBRIDGE       CLEAR     49  39  68 NW9       29.97R
$$

SDZ012>016-024>037-041>051-057-063-072>074-290900-
SOUTHWEST AND SOUTH CENTRAL SOUTH DAKOTA

CITY           SKY/WX    TMP DP  RH WIND       PRES   REMARKS
RAPID CTY ARPT CLEAR     41  37  86 N12       30.11R
PIERRE         MOCLDY    50  39  66 NW8       30.00R
CUSTER         CLEAR     44  34  67 W5        30.18S
ELLSWORTH AFB  CLEAR     51  40  66 N10       30.11
PHILIP         CLOUDY    47  37  68 NW9       30.07R
PINE RIDGE     CLEAR     47  44  90 W5        30.12R
SPEARFISH      FAIR      52  34  50 NW8G14    30.15S
WINNER         FAIR      50  46  86 W8        29.99S
$$

SDZ004>011-016>023-039-040-290900-
NORTHEAST SOUTH DAKOTA

CITY           SKY/WX    TMP DP  RH WIND       PRES   REMARKS
ABERDEEN       CLEAR     49  41  74 NW12      29.90S
WATERTOWN      CLEAR     50  44  80 W12       29.87R
BROOKINGS      PTCLDY    51  44  77 NW13      29.88R
SISSETON         N/A     55  48  77 NW12      29.83S
$$

SDZ017-020-022-023-036>040-048>070-290900-
SOUTHEAST SOUTH DAKOTA

CITY           SKY/WX    TMP DP  RH WIND       PRES   REMARKS
SIOUX FALLS    PTCLDY    53  45  74 W7        29.90S
HURON          PTCLDY    50  44  80 NW13      29.92S
MITCHELL       CLEAR     51  47  86 W7        29.94R
YANKTON        MOCLDY    53  46  77 W5        29.91F
$$

ABBREVIATIONS USED IN REMARKS
   TC - TEMPERATURE IN CELSIUS
  WCI - WIND CHILL INDEX
   HX - HEAT INDEX
  VSB - VISIBILITY





USA.gov is the U.S. government's official web portal to all federal, state and local government web resources and services.